EW2546 Weather Reports


time (UTC)temp
F
wind
direction
speed
knots
gust
knots
rain 1hr
in
rain 24hr
in
rain mn
in
humidity
%
barometer
mb
20260508060038 39 0 0.0 0.0 0.00 0.00 0.00 76 1007.0
20260508055524 39 0 0.0 0.0 0.00 0.01 0.00 78 1007.0
20260508055026 39 0 0.0 0.0 0.00 0.01 0.00 78 1007.1
20260508054542 39 0 0.0 0.0 0.00 0.01 0.00 76 1007.2
20260508054025 39 0 0.0 0.0 0.00 0.01 0.00 75 1007.3
20260508053525 39 0 0.0 0.0 0.00 0.01 0.00 73 1007.3
20260508053051 39 0 0.0 0.0 0.00 0.01 0.00 73 1007.4
20260508052526 39 0 0.0 0.0 0.00 0.01 0.00 73 1007.5
20260508052029 40 0 0.0 0.9 0.00 0.01 0.00 74 1007.5
20260508051604 40 0 0.0 0.9 0.00 0.01 0.00 74 1007.5
20260508051025 40 0 0.0 0.0 0.00 0.01 0.00 73 1007.5
20260508050526 40 0 0.0 0.0 0.00 0.01 0.00 74 1007.5
20260508050042 40 0 0.0 0.0 0.00 0.01 0.00 75 1007.6
20260508045524 40 0 0.0 0.0 0.00 0.09 0.00 74 1007.6
20260508045025 40 0 0.0 0.0 0.00 0.09 0.00 74 1007.6
20260508044540 40 0 0.0 0.0 0.00 0.09 0.00 74 1007.6
20260508044024 40 0 0.0 0.0 0.00 0.09 0.00 73 1007.5
20260508043526 40 0 0.0 0.0 0.00 0.09 0.00 72 1007.6
20260508043039 41 0 0.0 0.0 0.00 0.09 0.00 70 1007.6
20260508042525 41 0 0.0 0.0 0.00 0.09 0.00 71 1007.6
20260508042028 41 0 0.0 0.0 0.00 0.09 0.00 73 1007.6
20260508041538 41 0 0.0 0.0 0.00 0.09 0.00 73 1007.5
20260508041025 41 0 0.0 0.0 0.00 0.09 0.00 73 1007.5
20260508040527 42 0 0.0 0.0 0.00 0.09 0.00 69 1007.6
20260508040045 42 0 0.0 0.0 0.00 0.09 0.00 69 1007.6
20260508035527 42 0 0.0 0.0 0.00 0.11 0.09 68 1007.7
20260508035025 42 0 0.0 0.0 0.00 0.11 0.09 69 1007.7
20260508034542 42 0 0.0 0.0 0.00 0.11 0.09 68 1007.7
20260508034024 42 0 0.0 0.0 0.00 0.11 0.09 68 1007.7
20260508033525 43 0 0.0 0.0 0.00 0.11 0.09 69 1007.6
20260508033047 43 0 0.0 0.0 0.00 0.11 0.09 70 1007.6
20260508032525 43 0 0.0 0.0 0.00 0.11 0.09 69 1007.6
20260508032026 43 0 0.0 0.0 0.00 0.11 0.09 65 1007.6
20260508031540 43 0 0.0 0.0 0.00 0.11 0.09 64 1007.6
20260508031024 43 0 0.0 0.0 0.00 0.11 0.09 61 1007.6
20260508030527 43 0 0.0 0.0 0.00 0.11 0.09 63 1007.5
20260508030044 43 0 0.0 0.0 0.00 0.11 0.09 60 1007.6
20260508025526 44 0 0.0 0.0 0.00 0.11 0.09 59 1007.5
20260508025026 44 0 0.0 0.0 0.00 0.11 0.09 60 1007.5
20260508024536 44 0 0.0 0.0 0.00 0.11 0.09 59 1007.4
20260508024025 44 0 0.0 0.0 0.00 0.11 0.09 59 1007.3
20260508023525 45 0 0.0 0.0 0.00 0.11 0.09 62 1007.3
20260508023042 45 0 0.0 0.0 0.00 0.11 0.09 60 1007.2
20260508022524 45 0 0.0 0.0 0.00 0.11 0.09 58 1007.2
20260508022028 46 0 0.0 0.0 0.00 0.11 0.09 58 1007.2
20260508021540 46 0 0.0 0.0 0.00 0.11 0.09 58 1007.2
20260508021029 46 0 0.0 0.0 0.00 0.11 0.09 58 1007.3
20260508020526 47 0 0.0 0.0 0.00 0.11 0.09 62 1007.2
20260508020038 47 0 0.0 0.0 0.00 0.11 0.09 59 1007.1
20260508015524 47 0 0.0 0.0 0.00 0.14 0.09 57 1007.1
20260508015025 48 0 0.0 0.9 0.00 0.14 0.09 59 1007.0
20260508014538 48 0 0.0 1.7 0.00 0.14 0.09 56 1006.9
20260508014024 48 0 0.0 1.7 0.00 0.14 0.09 59 1007.0
20260508013524 48 0 0.0 2.6 0.00 0.14 0.09 52 1007.0
20260508013036 48 0 0.0 5.2 0.00 0.14 0.09 54 1007.0
20260508012525 49 333 0.0 5.2 0.00 0.14 0.09 53 1006.9
20260508012025 49 0 0.0 3.5 0.00 0.14 0.09 53 1006.9
20260508011548 49 0 0.0 3.5 0.00 0.14 0.09 51 1006.8
20260508011024 49 0 0.0 6.1 0.00 0.14 0.09 56 1006.7
20260508010526 49 0 0.0 6.1 0.00 0.14 0.09 58 1006.6
20260508010053 49 0 0.0 3.5 0.00 0.14 0.09 55 1006.5
20260508005527 49 0 0.0 3.5 0.00 0.14 0.09 57 1006.3
20260508005025 49 0 0.0 2.6 0.00 0.14 0.09 57 1006.3
20260508004535 50 296 0.0 3.5 0.00 0.14 0.09 58 1006.2
20260508004025 50 0 0.0 3.5 0.00 0.14 0.09 57 1006.2
20260508003524 50 0 0.0 3.5 0.00 0.14 0.09 54 1006.1
20260508003036 50 0 0.0 3.5 0.00 0.14 0.09 48 1006.0
20260508002528 51 0 0.0 0.9 0.00 0.14 0.09 51 1005.9
20260508002025 51 0 0.0 0.0 0.00 0.14 0.09 53 1005.9
20260508001536 52 0 0.0 0.0 0.00 0.14 0.09 56 1005.8
20260508001026 53 0 0.0 0.0 0.00 0.14 0.09 54 1005.7
20260508000525 53 0 0.0 4.3 0.00 0.14 0.09 48 1005.7
20260508000046 53 0 0.0 5.2 0.00 0.14 0.09 47 1005.6
20260507235528 54 0 0.0 5.2 0.00 0.14 0.09 45 1005.6
20260507235026 54 0 0.9 5.2 0.00 0.14 0.09 42 1005.5
20260507234538 54 0 0.0 3.5 0.00 0.14 0.09 44 1005.4
20260507234024 55 291 0.0 2.6 0.00 0.14 0.09 48 1005.3
20260507233525 55 0 0.0 1.7 0.00 0.14 0.09 45 1005.3
20260507233040 55 0 0.0 4.3 0.00 0.14 0.09 41 1005.3
20260507232527 56 0 0.9 8.7 0.00 0.14 0.09 42 1005.1
20260507232027 56 292 0.0 8.7 0.00 0.14 0.09 42 1005.0
20260507231535 56 292 1.7 8.7 0.00 0.14 0.09 38 1004.9
20260507231024 57 313 0.9 7.8 0.00 0.14 0.09 42 1004.8
20260507230525 57 313 0.0 7.8 0.00 0.14 0.09 41 1004.8
20260507230056 58 0 1.7 7.8 0.00 0.14 0.09 41 1004.8
20260507225526 58 0 0.0 5.2 0.00 0.14 0.09 36 1004.7
20260507225025 58 0 0.9 5.2 0.00 0.14 0.09 36 1004.7
20260507224542 58 300 0.0 4.3 0.00 0.14 0.09 39 1004.6
20260507224028 58 0 0.0 4.3 0.00 0.14 0.09 34 1004.5
20260507223532 58 0 0.0 5.2 0.00 0.14 0.09 37 1004.5
20260507223119 59 0 0.0 7.8 0.00 0.14 0.09 35 1004.4
20260507222523 59 291 1.7 7.8 0.00 0.14 0.09 33 1004.3
20260507222024 60 0 1.7 7.8 0.00 0.14 0.09 33 1004.3
20260507221534 59 0 0.0 7.8 0.00 0.14 0.09 36 1004.2
20260507221024 60 284 0.0 7.0 0.00 0.14 0.09 34 1004.2
20260507220524 60 253 0.9 7.0 0.00 0.14 0.09 34 1004.2
20260507220043 60 304 2.6 6.1 0.00 0.14 0.09 35 1004.2
20260507215527 59 0 0.0 7.0 0.00 0.20 0.09 34 1004.3
20260507215024 60 0 0.9 7.0 0.00 0.20 0.09 35 1004.1
20260507214548 60 315 1.7 9.6 0.00 0.20 0.09 36 1004.2
20260507214025 60 0 2.6 9.6 0.00 0.20 0.09 37 1004.2
20260507213525 61 0 0.0 5.2 0.00 0.20 0.09 34 1004.2
20260507213039 62 0 0.0 5.2 0.00 0.20 0.09 32 1004.1
20260507212524 62 0 0.9 7.0 0.00 0.20 0.09 32 1004.0
20260507212024 62 333 0.0 7.8 0.00 0.20 0.09 32 1004.2
20260507211538 62 310 0.9 7.8 0.00 0.20 0.09 31 1004.1
20260507211024 63 259 1.7 6.1 0.00 0.20 0.09 33 1004.0
20260507210524 63 0 0.9 6.1 0.00 0.20 0.09 31 1004.0
20260507210042 63 305 1.7 6.1 0.00 0.20 0.09 31 1004.1
20260507205531 63 302 0.9 8.7 0.00 0.27 0.09 33 1003.9
20260507205028 62 297 0.9 8.7 0.00 0.27 0.09 33 1003.9
20260507204541 62 288 1.7 7.8 0.00 0.27 0.09 33 1003.8
20260507204024 62 309 0.9 4.3 0.00 0.27 0.09 37 1003.8
20260507203528 62 274 0.0 4.3 0.00 0.27 0.09 35 1003.8
20260507203040 62 297 1.7 7.0 0.00 0.27 0.09 36 1003.8
20260507202526 63 0 0.9 7.8 0.00 0.27 0.09 34 1003.7
20260507202024 64 292 2.6 14.8 0.00 0.27 0.09 35 1003.8
20260507201542 64 260 2.6 14.8 0.00 0.27 0.09 34 1003.8
20260507201034 64 304 1.7 7.8 0.00 0.27 0.09 34 1003.7
20260507200525 64 302 1.7 10.4 0.00 0.27 0.09 34 1003.8
20260507200052 64 269 0.9 10.4 0.00 0.27 0.09 33 1003.7
20260507195524 64 0 0.9 10.4 0.00 0.44 0.09 29 1003.6
20260507195024 64 185 1.7 8.7 0.00 0.44 0.09 29 1003.7
20260507194535 64 335 2.6 13.0 0.00 0.44 0.09 30 1003.7
20260507194024 64 315 2.6 13.0 0.00 0.44 0.09 28 1003.8
20260507193524 64 286 1.7 7.8 0.00 0.44 0.09 30 1003.8
20260507193044 64 288 3.5 7.8 0.00 0.44 0.09 31 1003.8
20260507192525 63 0 2.6 9.6 0.00 0.44 0.09 33 1003.9
20260507192024 63 303 1.7 9.6 0.00 0.44 0.09 38 1003.9
20260507191542 63 313 3.5 7.8 0.00 0.44 0.09 40 1004.0
20260507191023 63 299 1.7 9.6 0.00 0.44 0.09 42 1003.9
20260507190525 63 0 3.5 9.6 0.00 0.44 0.09 43 1003.9
20260507190041 63 243 2.6 8.7 0.00 0.44 0.09 46 1004.0
20260507185525 61 255 2.6 8.7 0.00 0.47 0.09 46 1004.0
20260507185024 59 0 1.7 9.6 0.00 0.47 0.09 49 1004.0
20260507184538 60 0 0.9 10.4 0.00 0.47 0.09 52 1004.0
20260507184024 60 294 1.7 10.4 0.00 0.47 0.09 49 1004.0
20260507183524 60 0 0.0 7.8 0.00 0.47 0.09 54 1004.0
20260507183041 60 314 1.7 7.8 0.00 0.47 0.09 49 1004.1
20260507182524 61 0 0.0 7.8 0.00 0.47 0.09 50 1004.0
20260507182025 61 0 1.7 8.7 0.00 0.47 0.09 52 1004.0
20260507181537 62 299 3.5 8.7 0.00 0.47 0.09 48 1004.0
20260507181024 62 268 2.6 8.7 0.00 0.47 0.09 48 1003.9
20260507180530 61 0 0.9 7.0 0.00 0.47 0.09 48 1004.0
20260507180046 62 265 0.0 6.1 0.00 0.47 0.09 45 1004.0
20260507175526 63 0 0.9 7.8 0.00 0.47 0.09 47 1004.2
20260507175027 64 270 0.9 7.8 0.00 0.47 0.09 44 1004.2
20260507174541 63 233 0.9 7.0 0.00 0.47 0.09 45 1004.0
20260507174025 63 247 1.7 7.0 0.00 0.47 0.09 46 1004.2
20260507173525 61 232 0.0 8.7 0.00 0.47 0.09 46 1004.2
20260507173039 60 259 0.0 8.7 0.00 0.47 0.09 48 1004.5
20260507172527 59 278 0.0 5.2 0.00 0.47 0.09 51 1004.4
20260507172026 60 0 0.0 7.0 0.00 0.47 0.09 51 1004.4
20260507171540 60 0 0.9 7.0 0.00 0.47 0.09 47 1004.4
20260507171026 61 303 1.7 6.1 0.00 0.47 0.09 46 1004.5
20260507170526 61 0 0.9 6.1 0.00 0.47 0.09 48 1004.4
20260507170043 61 228 0.0 4.3 0.00 0.47 0.09 50 1004.5
20260507165527 61 0 0.0 2.6 0.00 0.47 0.09 47 1004.5
20260507165027 61 303 0.0 3.5 0.00 0.47 0.09 46 1004.5
20260507164536 61 0 0.0 3.5 0.00 0.47 0.09 49 1004.5
20260507164027 61 267 0.0 6.1 0.00 0.47 0.09 51 1004.6
20260507163529 62 252 0.0 7.8 0.00 0.47 0.09 45 1004.7
20260507163043 61 0 1.7 7.8 0.00 0.47 0.09 45 1004.8
20260507162525 61 0 0.0 5.2 0.00 0.47 0.09 49 1004.7
20260507162028 60 270 0.0 5.2 0.00 0.47 0.09 46 1004.8
20260507161550 60 0 0.0 2.6 0.00 0.47 0.09 50 1005.0
20260507161025 60 0 0.0 2.6 0.00 0.47 0.09 51 1005.0
20260507160526 60 0 0.0 2.6 0.00 0.47 0.09 49 1005.1
20260507160041 60 0 0.0 3.5 0.00 0.47 0.09 53 1005.2
20260507155526 60 0 0.0 6.1 0.00 0.47 0.09 51 1005.3
20260507155029 61 243 0.9 6.1 0.00 0.47 0.09 47 1005.4
20260507154542 62 329 0.9 8.7 0.00 0.47 0.09 51 1005.3
20260507154026 62 0 1.7 8.7 0.00 0.47 0.09 52 1005.4
20260507153526 61 0 0.0 5.2 0.00 0.47 0.09 47 1005.4
20260507153042 61 0 0.0 5.2 0.00 0.47 0.09 54 1005.4
20260507152526 60 203 0.0 3.5 0.00 0.47 0.09 50 1005.4
20260507152026 60 300 0.9 5.2 0.00 0.47 0.09 57 1005.5
20260507151543 59 324 0.9 5.2 0.00 0.47 0.09 56 1005.5
20260507151027 59 357 0.9 4.3 0.00 0.47 0.09 59 1005.5
20260507150530 58 0 0.0 3.5 0.00 0.47 0.09 59 1005.5
20260507150049 58 18 0.0 6.1 0.00 0.47 0.09 58 1005.5
20260507145528 58 0 0.9 6.1 0.00 0.47 0.09 60 1005.8
20260507145026 58 303 0.9 5.2 0.00 0.47 0.09 58 1005.7
20260507144540 58 0 0.0 4.3 0.00 0.47 0.09 59 1005.7
20260507144026 57 325 0.0 4.3 0.00 0.47 0.09 61 1005.7
20260507143528 57 324 0.0 1.7 0.00 0.47 0.09 65 1005.7
20260507143038 57 0 0.0 4.3 0.00 0.47 0.09 62 1005.8
20260507142527 56 0 0.9 5.2 0.00 0.47 0.09 63 1005.9
20260507142025 56 0 0.0 5.2 0.00 0.47 0.09 63 1006.0
20260507141535 56 0 0.9 6.1 0.00 0.47 0.09 63 1006.0
20260507141025 56 0 0.0 6.1 0.00 0.47 0.09 63 1006.0
20260507140528 56 0 1.7 6.1 0.00 0.47 0.09 65 1006.0
20260507140037 55 0 1.7 7.8 0.00 0.47 0.09 63 1006.1
20260507135530 55 313 0.0 7.8 0.00 0.47 0.09 65 1006.1
20260507135026 55 331 2.6 7.0 0.00 0.47 0.09 65 1006.1
20260507134542 55 0 0.9 6.1 0.00 0.47 0.09 65 1006.2
20260507134028 55 0 0.9 4.3 0.00 0.47 0.09 67 1006.2
20260507133530 55 301 0.9 4.3 0.00 0.47 0.09 67 1006.2
20260507133040 54 0 0.0 4.3 0.00 0.47 0.09 70 1006.1
20260507132526 54 0 0.0 6.1 0.00 0.47 0.09 71 1006.2
20260507132025 54 0 0.0 6.1 0.00 0.47 0.09 71 1006.2
20260507131540 53 0 0.0 4.3 0.00 0.47 0.09 71 1006.2
20260507131026 53 267 0.9 4.3 0.00 0.47 0.09 72 1006.2
20260507130527 53 0 0.0 4.3 0.00 0.47 0.09 73 1006.2
20260507130056 52 0 0.0 4.3 0.00 0.47 0.09 74 1006.2
20260507125528 52 0 0.0 4.3 0.00 0.47 0.09 76 1006.3
20260507125023 52 0 0.0 4.3 0.00 0.47 0.09 76 1006.2
20260507124540 51 0 0.0 3.5 0.00 0.47 0.09 79 1006.4
20260507124026 51 0 0.0 5.2 0.00 0.47 0.09 81 1006.4
20260507123523 50 0 0.0 5.2 0.00 0.47 0.09 82 1006.5
20260507123057 50 0 0.0 0.9 0.00 0.47 0.09 85 1006.5
20260507122526 49 0 0.0 0.9 0.00 0.47 0.09 83 1006.3
20260507122026 49 0 0.0 2.6 0.00 0.47 0.09 86 1006.4
20260507121550 48 0 0.0 4.3 0.00 0.47 0.09 89 1006.5
20260507121026 47 0 0.9 4.3 0.00 0.47 0.09 89 1006.4
20260507120533 47 249 0.0 2.6 0.00 0.47 0.09 92 1006.5
20260507120041 46 0 0.0 2.6 0.00 0.47 0.09 92 1006.6
20260507115526 46 0 0.9 2.6 0.00 0.47 0.09 94 1006.6
20260507115029 46 0 0.0 1.7 0.00 0.47 0.09 94 1006.5
20260507114539 45 0 0.0 1.7 0.00 0.47 0.09 94 1006.5
20260507114025 45 0 0.0 0.0 0.00 0.47 0.09 94 1006.6
20260507113526 45 0 0.0 0.0 0.00 0.47 0.09 94 1006.5
20260507113040 45 0 0.0 0.0 0.00 0.47 0.09 95 1006.6
20260507112527 45 0 0.0 0.0 0.00 0.47 0.09 95 1006.8
20260507112026 45 0 0.0 0.0 0.00 0.47 0.09 95 1006.8
20260507111538 45 0 0.0 0.0 0.00 0.47 0.09 95 1006.9
20260507111026 45 0 0.0 0.0 0.00 0.47 0.09 95 1006.9
20260507110526 45 0 0.0 0.0 0.00 0.47 0.09 95 1006.6
20260507110036 45 0 0.0 0.0 0.00 0.47 0.09 95 1006.7
20260507105525 45 0 0.0 0.0 0.00 0.47 0.09 95 1006.9
20260507105026 45 0 0.0 0.0 0.00 0.47 0.09 95 1007.1
20260507104536 45 0 0.0 0.0 0.00 0.47 0.09 95 1007.0
20260507104028 44 0 0.0 0.0 0.00 0.47 0.09 95 1006.9
20260507103526 44 0 0.0 0.0 0.00 0.47 0.09 95 1006.8
20260507103040 44 0 0.0 0.0 0.00 0.47 0.09 95 1007.2
20260507102528 44 0 0.0 0.0 0.00 0.47 0.09 95 1006.7
20260507102026 44 0 0.0 0.0 0.00 0.47 0.09 95 1006.7
20260507101541 44 0 0.0 0.0 0.00 0.47 0.09 95 1006.9
20260507101028 44 0 0.0 0.0 0.00 0.47 0.09 95 1006.7
20260507100525 44 0 0.0 0.0 0.00 0.47 0.09 95 1007.1
20260507100049 44 0 0.0 0.0 0.00 0.47 0.09 95 1006.9
20260507095525 44 0 0.0 0.0 0.00 0.47 0.09 95 1006.6
20260507095025 44 0 0.0 0.0 0.00 0.47 0.09 95 1006.2
20260507094537 44 0 0.0 0.0 0.00 0.47 0.09 94 1006.2
20260507094025 44 0 0.0 0.0 0.00 0.47 0.09 94 1006.3
20260507093527 44 0 0.0 0.0 0.00 0.47 0.09 94 1006.1
20260507093035 44 0 0.0 0.0 0.00 0.47 0.09 94 1005.9
20260507092528 44 0 0.0 0.0 0.00 0.47 0.09 94 1006.0
20260507092025 44 0 0.0 0.0 0.00 0.47 0.09 94 1006.0
20260507091541 45 0 0.0 0.0 0.00 0.47 0.09 94 1006.1
20260507091026 45 0 0.0 0.0 0.00 0.47 0.09 94 1006.5
20260507090525 45 0 0.0 0.0 0.00 0.47 0.09 94 1006.4
20260507090039 45 0 0.0 0.0 0.00 0.47 0.09 94 1006.3
20260507085525 45 0 0.0 0.0 0.00 0.47 0.09 94 1006.1
20260507085027 45 0 0.0 0.0 0.00 0.47 0.09 94 1006.4
20260507084545 45 0 0.0 0.0 0.00 0.47 0.09 94 1006.6
20260507084026 45 0 0.0 0.0 0.00 0.47 0.09 94 1006.2
20260507083525 45 0 0.0 0.9 0.00 0.47 0.09 94 1006.2
20260507083051 45 0 0.0 0.9 0.00 0.47 0.09 94 1006.3
20260507082526 45 0 0.0 0.9 0.00 0.47 0.09 94 1006.1
20260507082025 46 0 0.0 0.9 0.00 0.47 0.09 94 1006.4
20260507081537 46 0 0.0 0.9 0.00 0.47 0.09 94 1006.2
20260507081027 46 0 0.0 0.0 0.00 0.47 0.09 94 1006.0
20260507080527 46 0 0.0 0.0 0.00 0.47 0.09 94 1006.0
20260507080050 46 0 0.0 3.5 0.00 0.47 0.09 94 1005.9
20260507075528 46 0 0.0 3.5 0.00 0.47 0.09 93 1006.1
20260507075026 46 0 0.0 3.5 0.00 0.47 0.09 94 1005.7
20260507074541 47 0 0.0 3.5 0.00 0.47 0.09 94 1006.0
20260507074025 47 0 0.0 3.5 0.00 0.47 0.09 95 1005.8
20260507073529 48 0 0.0 0.9 0.00 0.47 0.09 95 1005.8
20260507073049 48 0 0.0 0.9 0.00 0.47 0.09 95 1006.0
20260507072525 48 0 0.0 0.0 0.00 0.47 0.09 95 1005.8
20260507072025 48 0 0.0 0.0 0.00 0.47 0.09 95 1005.9
20260507071537 48 0 0.0 0.0 0.00 0.47 0.09 94 1005.9
20260507071025 48 0 0.0 0.0 0.00 0.47 0.09 95 1005.6
20260507070527 48 0 0.0 0.0 0.00 0.47 0.09 95 1005.6
20260507070043 48 0 0.0 0.0 0.00 0.47 0.09 95 1005.5
20260507065525 48 0 0.0 0.0 0.00 0.47 0.09 95 1005.4
20260507065025 48 0 0.0 0.0 0.00 0.47 0.09 95 1005.4
20260507064541 48 0 0.0 0.0 0.00 0.47 0.09 94 1005.5
20260507064026 48 0 0.0 0.0 0.00 0.47 0.09 94 1005.4
20260507063529 48 0 0.0 0.0 0.00 0.47 0.09 94 1005.3
20260507063046 49 0 0.0 0.0 0.00 0.47 0.09 94 1005.1
20260507062525 49 0 0.0 0.0 0.00 0.47 0.09 94 1005.1
20260507062025 49 0 0.0 0.0 0.00 0.47 0.09 95 1004.9
20260507061539 49 0 0.0 0.0 0.01 0.47 0.09 95 1005.0
20260507061028 49 0 0.0 0.0 0.01 0.47 0.09 95 1005.1
20260507060527 49 0 0.0 0.0 0.01 0.47 0.09 95 1005.2